Location: Newark
(42.8481°N, 0.4872°E)
Time: 12:53:44
(UTC+00:00)

A-11 Canister half - Pass Details

Date: 05 November 2020
Orbit: 1525 x 1684 km, 47.3° (Epoch: 01 December)

Event Time Altitude Azimuth Distance (km) Brightness Sun altitude
Rises 15:29:16 0° 279° (W) 4,785 12.3 11.4°
Reaches altitude 10° 15:32:26 10° 282° (WNW) 3,779 11.8 11.0°
Maximum altitude 15:41:57 69° 6° (N) 1,638 9.2 9.5°
Drops below altitude 10° 15:51:15 10° 89° (E) 3,694 10.5 8.0°
Sets 15:54:18 0° 92° (E) 4,672 11.0 7.6°
